Weather History for Watertown, WI

Change the Weather History Date:

Wednesday, December 18, 2013

  Actual Average Record
Temperature  
Mean Temperature 18 °F -  
Max Temperature 31 °F 28 °F 53 °F (1931)
Min Temperature 4 °F 15 °F -16 °F (1983)
Degree Days  
Heating Degree Days 48    
Moisture  
Dew Point 13 °F    
Average Humidity 71    
Maximum Humidity 92    
Minimum Humidity 50    
Precipitation  
Precipitation 0.00 in - - ()
Sea Level Pressure  
Sea Level Pressure 29.91 in    
Wind  
Wind Speed 7 mph (SSW)    
Max Wind Speed 20 mph    
Max Gust Speed 28 mph    
Visibility 10 miles    
Events      
Averages and records for this station are not official NWS values.
T = Trace of Precipitation, MM = Missing Value Source: NWS Daily Summary

Daily Weather History Graph

Daily Weather History Graph

Search for Another Location

Airport:

Trip Planner

Search our weather history database for the weather conditions in past years. The results will help you decide how hot, cold, wet, or windy it might be!

Date:

Astronomy

Dec. 18, 2013 Rise Set
Actual Time 7:21 AM CST 4:21 PM CST
Civil Twilight 6:49 AM CST 4:53 PM CST
Nautical Twilight 6:13 AM CST 5:29 PM CST
Astronomical Twilight 5:38 AM CST 6:04 PM CST
Moon 5:55 PM CST (12/18) 7:59 AM CST (12/18)
Length of Visible Light 10h 04m
Length of Day
8h 59m
Full, 98% of the Moon is Illuminated
Dec 18
Full
Dec 25
Last Quarter
Jan 1
New
Jan 7
First Quarter
Jan 15
Full

Hourly Weather History & Observations

Time (CST) Temp. Windchill Dew Point Humidity Pressure Visibility Wind Dir Wind Speed Gust Speed Precip Events Conditions
12:15 AM 22.6 °F 14.3 °F 14.5 °F 71% 30.03 in 10.0 mi West 6.9 mph 17.3 mph N/A   Overcast
12:35 AM 21.6 °F 10.6 °F 13.1 °F 70% 30.04 in 10.0 mi NW 10.4 mph - N/A   Mostly Cloudy
12:55 AM 19.4 °F 9.5 °F 10.4 °F 68% 30.04 in 10.0 mi WNW 8.1 mph - N/A   Mostly Cloudy
1:15 AM 18.9 °F 9.8 °F 10.2 °F 69% 30.04 in 10.0 mi WNW 6.9 mph - N/A   Scattered Clouds
1:35 AM 17.6 °F 8.2 °F 9.5 °F 71% 30.05 in 10.0 mi West 6.9 mph - N/A   Clear
1:55 AM 16.7 °F 8.3 °F 9.0 °F 72% 30.06 in 10.0 mi West 5.8 mph - N/A   Clear
2:15 AM 15.8 °F 6.1 °F 8.6 °F 73% 30.06 in 10.0 mi WNW 6.9 mph - N/A   Clear
2:35 AM 15.8 °F 10.2 °F 8.6 °F 73% 30.06 in 10.0 mi WNW 3.5 mph - N/A   Clear
2:55 AM 14.7 °F - 8.2 °F 75% 30.05 in 10.0 mi Calm Calm - N/A   Clear
3:15 AM 13.1 °F 7.1 °F 7.9 °F 80% 30.07 in 10.0 mi West 3.5 mph - N/A   Clear
3:35 AM 13.6 °F 6.0 °F 8.2 °F 79% 30.06 in 10.0 mi West 4.6 mph - N/A   Clear
3:55 AM 13.3 °F 7.3 °F 7.7 °F 78% 30.07 in 10.0 mi West 3.5 mph - N/A   Clear
4:15 AM 12.0 °F 5.9 °F 7.0 °F 80% 30.07 in 10.0 mi West 3.5 mph - N/A   Clear
4:35 AM 11.3 °F 3.3 °F 6.8 °F 82% 30.07 in 10.0 mi WSW 4.6 mph - N/A   Clear
4:55 AM 10.4 °F 4.0 °F 6.6 °F 85% 30.07 in 10.0 mi WSW 3.5 mph - N/A   Clear
5:15 AM 10.2 °F 3.8 °F 6.1 °F 83% 30.07 in 10.0 mi WSW 3.5 mph - N/A   Clear
5:35 AM 10.4 °F 4.0 °F 5.9 °F 82% 30.07 in 10.0 mi WSW 3.5 mph - N/A   Clear
5:55 AM 9.5 °F - 5.7 °F 85% 30.07 in 10.0 mi Calm Calm - N/A   Clear
6:15 AM 6.6 °F - 4.1 °F 89% 30.07 in 10.0 mi Calm Calm - N/A   Clear
6:35 AM 4.5 °F - 2.7 °F 92% 30.06 in 10.0 mi Calm Calm - N/A   Clear
6:55 AM 4.8 °F - 2.7 °F 91% 30.06 in 10.0 mi Calm Calm - N/A   Scattered Clouds
7:15 AM 6.8 °F -3.5 °F 4.5 °F 90% 30.07 in 10.0 mi SW 5.8 mph - N/A   Mostly Cloudy
7:35 AM 11.1 °F 3.1 °F 6.8 °F 83% 30.07 in 10.0 mi SSW 4.6 mph - N/A   Overcast
7:55 AM 12.2 °F - 7.3 °F 81% 30.08 in 10.0 mi Calm Calm - N/A   Overcast
8:15 AM 13.1 °F 7.1 °F 7.9 °F 80% 30.07 in 10.0 mi South 3.5 mph - N/A   Overcast
8:35 AM 14.0 °F - 8.6 °F 79% 30.07 in 10.0 mi Calm Calm - N/A   Overcast
8:55 AM 14.0 °F 6.5 °F 8.6 °F 79% 30.06 in 10.0 mi SSE 4.6 mph - N/A   Mostly Cloudy
9:15 AM 15.4 °F 6.8 °F 9.1 °F 76% 30.06 in 10.0 mi South 5.8 mph - N/A   Scattered Clouds
9:35 AM 16.9 °F 7.4 °F 10.4 °F 76% 30.06 in 10.0 mi South 6.9 mph - N/A   Clear
9:55 AM 17.6 °F 8.2 °F 11.1 °F 76% 30.03 in 10.0 mi South 6.9 mph - N/A   Clear
10:15 AM 18.5 °F 10.4 °F 11.8 °F 75% 30.03 in 10.0 mi South 5.8 mph - N/A   Clear
10:35 AM 19.6 °F 10.6 °F 12.0 °F 72% 30.02 in 10.0 mi South 6.9 mph - N/A   Clear
10:55 AM 20.8 °F 12.1 °F 12.2 °F 69% 30.00 in 10.0 mi SSE 6.9 mph - N/A   Clear
11:15 AM 21.7 °F 12.3 °F 12.9 °F 69% 29.98 in 10.0 mi SSE 8.1 mph - N/A   Clear
11:35 AM 23.5 °F 13.7 °F 12.2 °F 62% 29.96 in 10.0 mi SSE 9.2 mph - N/A   Clear
11:55 AM 24.8 °F 14.6 °F 12.9 °F 61% 29.94 in 10.0 mi South 10.4 mph - N/A   Clear
12:15 PM 27.0 °F 17.3 °F 13.8 °F 58% 29.92 in 10.0 mi South 10.4 mph - N/A   Clear
12:35 PM 28.4 °F 17.5 °F 13.3 °F 53% 29.89 in 10.0 mi South 13.8 mph 21.9 mph N/A   Clear
12:55 PM 29.3 °F 19.1 °F 13.8 °F 53% 29.87 in 10.0 mi South 12.7 mph 21.9 mph N/A   Clear
1:15 PM 28.6 °F 16.4 °F 14.0 °F 54% 29.85 in 10.0 mi South 17.3 mph 20.7 mph N/A   Clear
1:35 PM 29.7 °F 18.2 °F 14.5 °F 53% 29.82 in 10.0 mi South 16.1 mph 20.7 mph N/A   Clear
1:55 PM 31.1 °F 18.9 °F 14.2 °F 50% 29.80 in 10.0 mi South 19.6 mph 25.3 mph N/A   Clear
2:15 PM 29.8 °F 18.0 °F 13.8 °F 51% 29.80 in 10.0 mi South 17.3 mph 27.6 mph N/A   Clear
2:35 PM 28.4 °F 18.0 °F 14.4 °F 56% 29.80 in 10.0 mi South 12.7 mph - N/A   Clear
2:55 PM 28.4 °F 20.4 °F 14.7 °F 57% 29.79 in 10.0 mi South 8.1 mph 17.3 mph N/A   Clear
3:15 PM 28.8 °F 19.5 °F 14.7 °F 56% 29.78 in 10.0 mi South 10.4 mph - N/A   Clear
3:35 PM 30.6 °F 21.2 °F 14.9 °F 52% 29.78 in 10.0 mi South 11.5 mph 16.1 mph N/A   Clear
3:55 PM 30.7 °F 21.4 °F 15.3 °F 53% 29.77 in 10.0 mi South 11.5 mph 18.4 mph N/A   Clear
4:15 PM 30.9 °F 22.2 °F 15.4 °F 53% 29.76 in 10.0 mi SSW 10.4 mph - N/A   Clear
4:35 PM 30.6 °F 22.4 °F 15.8 °F 54% 29.77 in 10.0 mi SSW 9.2 mph - N/A   Clear
4:55 PM 30.2 °F 21.3 °F 15.8 °F 55% 29.76 in 10.0 mi South 10.4 mph - N/A   Clear
5:15 PM 30.0 °F 20.0 °F 16.2 °F 56% 29.76 in 10.0 mi South 12.7 mph - N/A   Clear
5:35 PM 29.3 °F 20.2 °F 16.7 °F 59% 29.75 in 10.0 mi SSW 10.4 mph - N/A   Clear
5:55 PM 28.9 °F 20.4 °F 17.2 °F 62% 29.75 in 10.0 mi South 9.2 mph 16.1 mph N/A   Clear
6:15 PM 28.8 °F 20.2 °F 17.6 °F 63% 29.75 in 10.0 mi South 9.2 mph - N/A   Clear
6:35 PM 28.4 °F 20.4 °F 18.1 °F 65% 29.75 in 10.0 mi SSW 8.1 mph - N/A   Clear
6:55 PM 28.4 °F 19.7 °F 18.5 °F 66% 29.75 in 10.0 mi SSW 9.2 mph - N/A   Clear
7:15 PM 28.6 °F 18.2 °F 19.0 °F 67% 29.74 in 10.0 mi SSW 12.7 mph 16.1 mph N/A   Clear
7:35 PM 29.5 °F 18.4 °F 19.9 °F 68% 29.74 in 10.0 mi SSW 15.0 mph 23.0 mph N/A   Clear
7:55 PM 29.5 °F 19.3 °F 20.7 °F 70% 29.74 in 10.0 mi SSW 12.7 mph 20.7 mph N/A   Clear
8:15 PM 29.5 °F 19.9 °F 21.0 °F 71% 29.74 in 10.0 mi SSW 11.5 mph 18.4 mph N/A   Clear
8:35 PM 29.3 °F 19.1 °F 21.4 °F 72% 29.74 in 10.0 mi SSW 12.7 mph - N/A   Clear
8:55 PM 29.7 °F 20.7 °F 21.7 °F 72% 29.74 in 10.0 mi SSW 10.4 mph - N/A   Clear
9:15 PM 29.1 °F 21.3 °F 21.9 °F 74% 29.74 in 10.0 mi SW 8.1 mph - N/A   Clear
9:35 PM 28.2 °F 19.5 °F 21.7 °F 77% 29.74 in 10.0 mi SSW 9.2 mph - N/A   Clear
9:55 PM 28.4 °F 19.7 °F 21.9 °F 77% 29.74 in 10.0 mi SW 9.2 mph - N/A   Clear
10:15 PM 28.8 °F 20.2 °F 22.3 °F 77% 29.74 in 10.0 mi SW 9.2 mph - N/A   Clear
10:35 PM 28.4 °F 19.1 °F 22.5 °F 78% 29.74 in 10.0 mi SW 10.4 mph - N/A   Clear
10:55 PM 28.2 °F 19.5 °F 22.8 °F 80% 29.74 in 10.0 mi SW 9.2 mph - N/A   Clear
11:15 PM 28.6 °F 19.9 °F 23.0 °F 80% 29.74 in 10.0 mi SW 9.2 mph - N/A   Clear
11:35 PM 29.5 °F 21.1 °F 23.7 °F 79% 29.74 in 10.0 mi SW 9.2 mph - N/A   Clear
11:55 PM 30.2 °F 23.4 °F 24.3 °F 79% 29.75 in 10.0 mi WSW 6.9 mph - N/A   Clear